Regional Weather Roundup
Issued by NWS Lake Charles, LA

Current Version | Previous Version | Text Only | Print | Product List | Glossary On
Versions: 1 2 3 4 5 6 7 8 9 10 11 12 13 14 15 16 17 18 19 20 21 22 23 24 25 26 27 28
000
ASUS44 KLCH 240410
RWRLCH
REGIONAL WEATHER ROUNDUP
NATIONAL WEATHER SERVICE LAKE CHARLES LA
1000 PM CST MON JAN 23 2017

Note: "fair" indicates few or no clouds below 12,000 feet with no
significant weather and/or obstructions to visibility.


ACROSS SOUTHEAST TEXAS

CITY           SKY/WX    TMP DP  RH WIND       PRES   REMARKS
BEAUMONT       CLEAR     53  48  83 S6        29.89F
BEAUMONT CITY  FAIR      55  46  71 CALM      29.90S
ORANGE         CLEAR     48  44  85 SW3       29.91S
JASPER         CLEAR     47  45  95 CALM      29.90S
$$

ACROSS CENTRAL LOUISIANA

CITY           SKY/WX    TMP DP  RH WIND       PRES   REMARKS
LEESVILLE      CLEAR     46  42  89 CALM      29.88S
FULLERTON      FAIR      44  41  89 CALM      29.86S
ALEXANDRIA INT   N/A     48  41  76 CALM      29.87S
ESLER FIELD    CLEAR     43  42  97 CALM      29.88S
DERIDDER       FAIR      47  43  87 CALM      29.91S
OAKDALE        CLEAR     43  42  97 CALM      29.89S
OPELOUSAS      FAIR      47  43  87 CALM      29.89S
$$

ACROSS SOUTHWEST AND SOUTH CENTRAL LOUISIANA

CITY           SKY/WX    TMP DP  RH WIND       PRES   REMARKS
SULPHUR        CLEAR     51  46  81 CALM      29.90F
LAKE CHARLES   CLEAR     49  45  86 CALM      29.89S
CHENNAULT INT  CLEAR     50  43  76 CALM      29.90S
CAMERON PHI    CLEAR     61  55  82 W5        29.89F
DEQUINCY       FAIR      45  43  92 CALM      29.90S
JENNINGS       FAIR      51  44  77 CALM      29.90S
LAFAYETTE      CLEAR     51  43  74 CALM      29.90S
NEW IBERIA     CLEAR     49  43  80 CALM      29.90F
ABBEVILLE      FAIR      50  50 100 W3        29.90F
PATTERSON      CLEAR     50  45  83 SW3       29.91S
SALT POINT     NOT AVBL
$$

SELECTED SITES ACROSS THE REGION

CITY           SKY/WX    TMP DP  RH WIND       PRES   REMARKS
HOUSTON BUSH   CLEAR     59  42  53 S6        29.89R
HOUSTON HOBBY  CLEAR     57  45  64 S9        29.90R
GALVESTON      CLEAR     60  54  80 SW8       29.92S
COLLEGE STAT   CLEAR     57  42  57 S8        29.86R
CONROE         CLEAR     46  43  89 CALM      29.88S
HUNTSVILLE     CLEAR     57  37  47 S6        29.86S
LUFKIN         CLEAR     48  39  71 E5        29.87S
SHREVEPORT     CLEAR     47  38  71 CALM      29.86R
MONROE         CLEAR     45  41  86 CALM      29.89S
NATCHEZ MS     CLEAR     46  39  76 CALM      29.88S
BATON ROUGE    CLEAR     50  46  86 CALM      29.89S
N.O. INTL ARPT CLEAR     54  47  77 CALM      29.89S
SLIDELL        CLEAR     50  47  89 CALM      29.89R
$$

MARINE REPORTS

STATION/POSITION TIME  SKY/WX   TEMP    WIND        PRES    VSBY
                                AIR SEA DIR/SP/G
                 (UTC)          (F)     (DEG/KT/KT) (MB)    (MI)
BUOY 30 S HIGH I 0350            65 66  230/ 14/ 14 1012.7R
WVE H/P(F/S)=  2/ 3

SEA RIM ST PARK  0400            61     220/  9/ 10 1013.1R
PORT ARTHUR      0348                   210/  7/ 10 1012.5F
SABINE PASS N    0342            57 64  210/  3/  5 1013.8S
TEXAS POINT      NOT AVBL
CALCASIEU PASS   0348                   260/  6/  7   N/A
LK CHARLES BEACH 0348            55                 1012.6S
MARSH ISLAND     0300            63                   N/A
FRESH WATER LOCK 0348                   220/  5/  6 1013.4F
AMERADA PASS     0348            56 56  190/  1/  2 1012.7R
$$




USA.gov is the U.S. government's official web portal to all federal, state and local government web resources and services.